Weather reports worldwide

Advertisment
Nottingham/Watnall, United Kingdom (3354): temperature & dewpoint: 11.12.2017 23:00:00 - 17.12.2017 23:00:00 (GMT)Nottingham/Watnall, United Kingdom (3354): temperature -20cm & temperature -100cm: 11.12.2017 23:00:00 - 17.12.2017 23:00:00 (GMT)Nottingham/Watnall, United Kingdom (3354): wind speed & gusts: 11.12.2017 23:00:00 - 17.12.2017 23:00:00 (GMT)Nottingham/Watnall, United Kingdom (3354): wind direction: 11.12.2017 23:00:00 - 17.12.2017 23:00:00 (GMT)Nottingham/Watnall, United Kingdom (3354): reduced air pressure: 11.12.2017 23:00:00 - 17.12.2017 23:00:00 (GMT)Nottingham/Watnall, United Kingdom (3354): visibility: 11.12.2017 23:00:00 - 17.12.2017 23:00:00 (GMT)Nottingham/Watnall, United Kingdom (3354): sunshine duration: 11.12.2017 23:00:00 - 17.12.2017 23:00:00 (GMT)Nottingham/Watnall, United Kingdom (3354): precipitation: 11.12.2017 23:00:00 - 17.12.2017 23:00:00 (GMT)
Date & Time tt [°C] td [°C] tt -20cm [°C] tt -100cm [°C] ff [km/h] ff [kn] fx [km/h] fx [kn] dd ppp [hPa] vv [km] sd [min] rr [mm]
17.12.2017 23:00:00 4,6 2,7 - - 11 6 - - WNW 1022,3 11 0 0,0
17.12.2017 22:00:00 4,5 2,5 - - 4 2 - - WNW 1021,4 10 0 0,0
17.12.2017 21:00:00 6,1 3,8 - - 11 6 - - NW 1019,9 11 0 0,0
17.12.2017 20:00:00 7,6 4,6 - - 16 9 - - WNW 1018,5 16 0 0,0
17.12.2017 19:00:00 8,0 7,8 - - 9 5 - - WSW 1017,6 9 0 0,0
17.12.2017 18:00:00 7,9 7,8 - - 11 6 - - WSW 1016,7 4,1 0 0,2
17.12.2017 17:00:00 7,0 6,9 - - 11 6 - - WSW 1016,1 1,3 0 0,0
17.12.2017 16:00:00 6,7 6,6 - - 11 6 - - WSW 1016,6 1,5 0 0,0
17.12.2017 15:00:00 6,4 6,3 - - 18 10 - - SW 1016,2 2,4 0 0,2
17.12.2017 14:00:00 5,7 5,5 - - 18 10 - - SW 1016,9 3,8 0 0,0
17.12.2017 13:00:00 4,5 4,5 - - 15 8 - - SW 1018,3 2,9 0 0,2
17.12.2017 12:00:00 2,9 2,9 - - 9 5 - - SSW 1020,0 4,8 0 0,0
17.12.2017 11:00:00 1,6 1,5 - - 8 4 - - SW 1021,6 1,9 0 0,2
17.12.2017 10:00:00 1,3 1,2 - - 8 4 - - SW 1021,8 4,1 0 0,0
17.12.2017 09:00:00 0,7 0,7 4,4 7,5 9 5 - - SSW 1022,0 4,1 0 0,0
17.12.2017 08:00:00 -0,2 -0,2 - - 9 5 - - WSW 1022,5 0,6 0 0,0
17.12.2017 07:00:00 -0,5 -0,6 - - 2 1 - - SW 1022,9 0,2 0 0,0
17.12.2017 06:00:00 -0,9 -1,0 - - 11 6 - - SW 1023,4 0,2 0 0,0
17.12.2017 05:00:00 -1,4 -1,6 - - 9 5 - - SW 1023,5 1,0 0 0,0
17.12.2017 04:00:00 -1,2 -1,7 - - 11 6 - - WSW 1023,5 2,3 0 0,0
17.12.2017 03:00:00 -0,3 -0,7 - - 13 7 - - W 1023,9 6 0 0,0
17.12.2017 02:00:00 -0,6 -1,1 - - 9 5 - - W 1023,8 5 0 0,0
17.12.2017 01:00:00 -0,7 -1,1 - - 11 6 - - WSW 1023,5 3,9 0 0,0
17.12.2017 00:00:00 -0,8 -1,3 - - 11 6 - - W 1023,6 3,7 - -
16.12.2017 23:00:00 0,0 -0,9 - - 9 5 - - NW 1022,9 6 0 0,0
16.12.2017 22:00:00 0,5 -0,3 - - 9 5 - - WNW 1022,8 7 0 0,0
16.12.2017 21:00:00 0,3 -0,4 - - 9 5 - - WNW 1022,5 6 0 0,0
16.12.2017 20:00:00 0,0 -0,8 - - 5 3 - - NW 1021,8 5 0 0,0
16.12.2017 19:00:00 0,7 0,0 - - 9 5 - - WNW 1021,0 7 0 0,0
16.12.2017 18:00:00 1,4 0,3 - - 11 6 - - W 1020,1 10 0 0,0
16.12.2017 17:00:00 2,1 1,0 - - 9 5 - - W 1019,7 8 0 0,0
16.12.2017 16:00:00 2,7 1,5 - - 8 4 - - W 1018,6 11 0 0,0
16.12.2017 15:00:00 2,9 1,7 - - 13 7 - - W 1018,3 17 0 0,0
16.12.2017 14:00:00 3,0 1,5 - - 11 6 - - W 1017,8 16 0 0,0
16.12.2017 13:00:00 2,5 1,0 - - 13 7 - - WSW 1017,4 13 0 0,0
16.12.2017 12:00:00 2,7 0,8 - - 15 8 - - W 1017,6 25 6 0,0
16.12.2017 11:00:00 1,2 -1,0 - - 8 4 - - WSW 1017,7 29 0 0,0
16.12.2017 10:00:00 0,5 -2,2 - - 11 6 - - WSW 1017,4 24 0 0,0
16.12.2017 09:00:00 0,6 -2,6 4,9 7,7 11 6 - - W 1017,0 22 6 0,0
16.12.2017 08:00:00 -0,4 -3,0 - - 11 6 - - W 1016,7 30 0 0,0
16.12.2017 07:00:00 -0,3 -3,0 - - 11 6 - - WNW 1016,2 20 0 0,0
16.12.2017 06:00:00 0,0 -2,8 - - 11 6 - - NW 1015,6 30 0 0,0
16.12.2017 05:00:00 -0,2 -3,0 - - 11 6 - - NW 1014,9 35 0 0,0
16.12.2017 04:00:00 0,1 -2,6 - - 11 6 - - WNW 1014,4 30 0 0,0
16.12.2017 03:00:00 0,1 -2,7 - - 9 5 - - WNW 1013,9 30 0 0,0
16.12.2017 02:00:00 0,8 -2,4 - - 11 6 - - WNW 1013,1 35 0 0,0
16.12.2017 01:00:00 0,8 -2,1 - - 11 6 - - W 1012,6 30 0 0,0
16.12.2017 00:00:00 0,0 -1,8 - - 9 5 - - WSW 1012,4 21 - 0,0
15.12.2017 23:00:00 0,7 -1,5 - - 11 6 - - W 1012,0 22 0 0,0
15.12.2017 22:00:00 0,9 -1,5 - - 11 6 - - W 1011,5 24 0 0,0
15.12.2017 21:00:00 1,6 -1,3 - - 11 6 - - W 1010,4 25 0 0,0
15.12.2017 20:00:00 2,0 -1,1 - - 11 6 - - WNW 1009,9 20 0 0,0
15.12.2017 19:00:00 2,8 -0,4 - - 15 8 - - NNW 1008,9 19 0 0,0
15.12.2017 18:00:00 3,5 0,4 - - 18 10 - - NNW 1007,6 21 0 0,0
15.12.2017 17:00:00 4,1 0,8 - - 21 11 - - NNW 1006,4 22 0 0,0
15.12.2017 16:00:00 4,4 1,3 - - 22 12 - - NNW 1004,9 21 0 0,0
15.12.2017 15:00:00 5,0 1,9 - - 18 10 - - NNW 1003,8 30 18 0,0
15.12.2017 14:00:00 5,2 1,8 - - 18 10 50 27 NNW 1002,4 30 42 0,0
15.12.2017 13:00:00 5,5 1,1 - - 21 11 - - NNW 1001,5 40 60 0,0
15.12.2017 12:00:00 4,7 0,9 - - 22 12 - - NNW 1000,6 30 60 0,0
15.12.2017 11:00:00 3,8 0,3 - - 24 13 - - NNW 999,8 45 54 0,0
15.12.2017 10:00:00 3,1 0,1 - - 16 9 - - NW 998,7 45 42 0,0
15.12.2017 09:00:00 2,8 -0,1 5,2 7,7 21 11 - - NNW 997,1 40 6 0,0
15.12.2017 08:00:00 2,5 0,2 - - 18 10 - - NNW 995,9 45 0 0,0
15.12.2017 07:00:00 2,7 0,5 - - 24 13 - - NNW 994,3 40 0 0,0
15.12.2017 06:00:00 2,5 0,3 - - 21 11 - - NNW 992,8 35 0 0,0
15.12.2017 05:00:00 2,2 0,6 - - 16 9 - - N 991,2 40 0 0,0
15.12.2017 04:00:00 2,0 0,9 - - 13 7 - - N 990,2 40 0 0,0
15.12.2017 03:00:00 1,9 1,2 - - 8 4 - - WNW 989,1 30 0 0,0
15.12.2017 02:00:00 1,9 1,3 - - 8 4 - - W 988,3 30 0 0,0
15.12.2017 01:00:00 2,2 1,5 - - 15 8 - - W 987,4 35 0 0,0
15.12.2017 00:00:00 2,3 1,7 - - 16 9 - - WSW 987,3 8 - 0,4
14.12.2017 23:00:00 2,4 1,5 - - 18 10 - - WSW 986,8 18 0 0,6
14.12.2017 22:00:00 2,6 1,8 - - 16 9 - - WSW 986,9 4,0 0 0,0
14.12.2017 21:00:00 1,9 1,1 - - 11 6 - - SW 986,4 15 0 0,0
14.12.2017 20:00:00 2,6 1,5 - - 16 9 - - WSW 986,3 12 0 0,0
14.12.2017 19:00:00 3,5 2,1 - - 16 9 - - WSW 985,7 14 0 0,4
14.12.2017 18:00:00 3,7 1,4 - - 18 10 - - SW 985,2 18 0 0,0
14.12.2017 17:00:00 4,0 1,2 - - 16 9 - - SW 985,4 17 0 0,0
14.12.2017 16:00:00 4,1 0,9 - - 18 10 - - SW 985,4 20 0 0,0
14.12.2017 15:00:00 4,9 0,9 - - 16 9 - - SW 985,7 18 18 0,0
14.12.2017 14:00:00 4,6 1,4 - - 15 8 - - SW 986,3 18 12 0,0
14.12.2017 13:00:00 4,6 1,3 - - 21 11 - - WSW 986,9 23 30 0,0
14.12.2017 12:00:00 4,4 1,0 - - 18 10 - - SW 987,4 26 60 0,0
14.12.2017 11:00:00 4,0 1,2 - - 16 9 - - WSW 988,2 23 60 0,0
14.12.2017 10:00:00 2,9 0,7 - - 15 8 - - SW 988,4 14 24 0,0
14.12.2017 09:00:00 2,3 0,6 5,2 7,7 15 8 - - WSW 988,7 18 0 0,0
14.12.2017 08:00:00 2,3 0,7 - - 13 7 - - WSW 988,8 16 0 0,0
14.12.2017 07:00:00 2,5 0,9 - - 16 9 - - WSW 988,6 20 0 0,0
14.12.2017 06:00:00 2,5 1,4 - - 13 7 - - WSW 988,6 30 0 0,8
14.12.2017 05:00:00 2,7 1,4 - - 18 10 - - W 988,8 14 0 0,2
14.12.2017 04:00:00 2,5 1,3 - - 21 11 - - WSW 988,6 23 0 0,0
14.12.2017 03:00:00 2,1 0,9 - - 21 11 - - WSW 988,4 24 0 0,0
14.12.2017 02:00:00 1,8 0,9 - - 18 10 - - WSW 988,4 7 0 0,0
14.12.2017 01:00:00 2,1 0,1 - - 18 10 46 25 W 988,5 26 0 0,0
14.12.2017 00:00:00 2,0 0,2 - - 15 8 - - WSW 988,4 35 - 0,2
13.12.2017 23:00:00 1,3 0,7 - - 13 7 - - W 988,0 10 0 0,4
13.12.2017 22:00:00 0,4 0,2 - - 15 8 - - WSW 987,2 13 0 0,2
13.12.2017 21:00:00 0,9 0,3 - - 18 10 - - WSW 987,3 8 0 0,6
13.12.2017 20:00:00 2,7 0,4 - - 21 11 - - WSW 986,9 17 0 0,0
13.12.2017 19:00:00 2,7 0,2 - - 21 11 - - W 986,7 18 0 0,0
13.12.2017 18:00:00 2,9 0,6 - - 22 12 - - WSW 988,2 27 0 0,0
13.12.2017 17:00:00 3,2 1,1 - - 13 7 - - WSW 988,7 28 0 0,0
13.12.2017 16:00:00 4,4 1,9 - - 16 9 - - W 989,0 40 12 0,0
13.12.2017 15:00:00 4,7 2,5 - - 18 10 - - W 988,8 40 0 0,2
13.12.2017 14:00:00 6,0 4,8 - - 29 16 55 30 WSW 988,9 4,9 0 1,0
13.12.2017 13:00:00 6,0 4,7 - - 22 12 - - SSW 989,2 14 0 0,0
13.12.2017 12:00:00 5,6 4,0 - - 22 12 - - SSW 991,5 15 0 0,0
13.12.2017 11:00:00 5,1 4,0 - - 18 10 - - SW 993,6 14 0 0,0
13.12.2017 10:00:00 4,2 3,7 - - 15 8 - - SW 995,1 10 0 0,2
13.12.2017 09:00:00 3,9 3,6 5,2 8,0 11 6 - - SW 996,3 9 0 0,0
13.12.2017 08:00:00 3,2 3,1 - - 8 4 - - SW 997,2 6 0 0,0
13.12.2017 07:00:00 2,6 2,6 - - 8 4 - - WSW 998,2 3,1 0 0,0
13.12.2017 06:00:00 2,6 2,6 - - 13 7 - - WSW 998,8 1,7 0 0,0
13.12.2017 05:00:00 2,6 2,6 - - 11 6 - - WSW 999,4 0,7 0 0,0
13.12.2017 04:00:00 2,5 2,5 - - 9 5 - - WSW 999,8 0,2 0 0,0
13.12.2017 03:00:00 2,9 2,8 - - 9 5 - - WSW 1000,2 0,9 0 0,0
13.12.2017 02:00:00 3,0 2,8 - - 11 6 - - WSW 1000,3 0,9 0 0,0
13.12.2017 01:00:00 3,0 2,7 - - 15 8 - - SW 1000,6 3,2 0 0,0
13.12.2017 00:00:00 3,1 2,7 - - 13 7 - - SW 1001,0 3,5 - 0,6
12.12.2017 23:00:00 2,8 2,0 - - 15 8 - - SSW 1001,0 12 0 0,2
12.12.2017 22:00:00 2,9 2,1 - - 18 10 - - SSW 1002,5 7 0 1,4
12.12.2017 21:00:00 2,1 1,5 - - 15 8 - - SSW 1004,0 2,8 0 0,0
12.12.2017 20:00:00 1,6 0,6 - - 13 7 - - SSW 1005,1 9 0 0,0
12.12.2017 19:00:00 1,3 0,4 - - 9 5 - - SSW 1005,8 10 0 0,0
12.12.2017 18:00:00 0,5 -0,4 - - 9 5 - - SSW 1006,1 13 0 0,0
12.12.2017 17:00:00 -0,4 -1,8 - - 8 4 - - SSW 1007,0 9 0 0,0
12.12.2017 16:00:00 -0,2 -1,6 - - 9 5 - - SW 1007,2 11 0 0,0
12.12.2017 15:00:00 0,0 -1,8 - - 11 6 - - SW 1007,2 13 0 0,0
12.12.2017 14:00:00 0,4 -1,7 - - 11 6 - - WSW 1007,7 13 6 0,0
12.12.2017 13:00:00 0,0 -2,0 - - 11 6 - - SW 1007,5 10 24 0,0
12.12.2017 12:00:00 -0,6 -2,5 - - 11 6 - - SW 1007,6 16 36 0,0
12.12.2017 11:00:00 -1,2 -2,7 - - 15 8 - - SW 1008,1 7 60 0,0
12.12.2017 10:00:00 -2,5 -3,9 - - 13 7 - - WSW 1007,9 7 60 0,0
12.12.2017 09:00:00 -3,4 -4,5 5,2 8,2 15 8 - - WSW 1007,4 9 18 0,0
12.12.2017 08:00:00 -2,6 -3,9 - - 15 8 - - W 1006,7 12 0 0,0
12.12.2017 07:00:00 -2,3 -3,7 - - 16 9 - - W 1005,7 12 0 0,0
12.12.2017 06:00:00 -2,1 -3,7 - - 16 9 - - W 1004,6 15 0 0,0
12.12.2017 05:00:00 -1,2 -3,2 - - 13 7 - - NW 1004,2 21 0 0,0
12.12.2017 04:00:00 -1,4 -3,4 - - 13 7 - - WNW 1003,9 28 0 0,0
12.12.2017 03:00:00 -1,4 -3,2 - - 11 6 - - NW 1002,8 29 0 0,0
12.12.2017 02:00:00 -2,0 -3,4 - - 13 7 - - W 1001,7 20 0 0,0
12.12.2017 01:00:00 -1,3 -2,6 - - 11 6 - - WNW 1000,2 35 0 0,0
12.12.2017 00:00:00 -1,3 -2,7 - - 13 7 - - WNW 999,5 35 - 0,0
11.12.2017 23:00:00 -2,2 -3,8 - - 5 3 - - W 998,7 19 0 0,0

tt = temperature
td = dewpoint
tt -20cm = temperature -20cm
tt -100cm = temperature -100cm
ff = wind speed
fx = gusts
dd = wind direction
ppp = reduced air pressure
vv = visibility
sd = sunshine duration
rr = precipitation

Next stations